Weather in Dus-Dag

Russia / Tyva Republic     50°48′48″N   92°40′53″E
temp.,
°C
wind,
m/s
gust,
m/s
humid.,
%
clouds,
%
prec.,
mm/h
press.,
hPa
HPBL,
m
22 january, sat
sat2201:00−17ne1195100 0.2 10329
04:00−18n119482 0.1 103210
07:00−17n119293 0.1 103310
10:00−17e119492 0.1 103430
13:00−15ssw119695 0.1 1034129
16:00−16ssw119996 0.0 103417
19:00−18nne1194100 0.0 10369
22:00−17nne119496 0.0 103710
23 january, sun
sun2301:00−19n229169 0.1 103810
04:00−20n328875 0.0 103910
07:00−21n328655 0.0 104010
10:00−20n228778 0.0 104011
13:00−17sse119687 0.0 1039102
16:00−19nne0010084 0.0 10399
19:00−22n329169 0.0 104211
22:00−22n328990 0.0 104311
24 january, mon
mon2401:00−22nne328993 0.0 104311
04:00−23nne2291100 0.0 104311
07:00−24n2291100 0.1 104311
10:00−23nne1193100 0.0 104412
13:00−20s119797 0.1 1042136
16:00−22ssw1110090 0.0 104210
19:00−24n229199 0.0 104410
22:00−24n2287100 0.0 10449
25 january, tue
tue2501:00−24nne1188100 0.0 10449
04:00−25nne1190100 0.0 104411
07:00−25ne1191100 0.0 104410
10:00−24e009397 0.0 104515
13:00−22ssw219782 0.0 1044104
16:00−24sw119952 0.0 104411
19:00−26n229138 0.0 10469
22:00−27n228730 0.0 10469
26 january, wed
wed2601:00−27nne228678 0.0 104610
04:00−28nne228889 0.0 104710
07:00−28nne229092 0.0 104710
10:00−27ne119397 0.0 104716
13:00−24s1198100 0.0 1045134
16:00−24s119899 0.0 1045105
19:00−28nne229362 0.0 104710
22:00−28nne229057 0.0 104810